Klamath Falls, OR

9:50 PM PDT on September 19, 2017 (GMT -0700)
Klamath Falls International

Weather History for KLMT - May, 2013

Change the Weather History Date:

Monday, May 27, 2013

  Actual Average Record
Temperature  
Mean Temperature 48 °F 53 °F  
Max Temperature 57 °F 68 °F 90 °F (1983)
Min Temperature 39 °F 39 °F 28 °F (1954)
Degree Days  
Heating Degree Days 17 12  
Month to date heating degree days 339 393  
Since 1 July heating degree days 6403 6712  
Cooling Degree Days 0 0  
Month to date cooling degree days 0 0  
Year to date cooling degree days 0 0  
Moisture  
Dew Point 43 °F    
Average Humidity 81    
Maximum Humidity 92    
Minimum Humidity 61    
Precipitation  
Precipitation 0.23 in 0.02 in 0.67 in (2008)
Month to date precipitation 0.68 1.32  
Year to date precipitation 3.21 7.73  
Sea Level Pressure  
Sea Level Pressure 29.90 in    
Wind  
Wind Speed 7 mph (SW)    
Max Wind Speed 23 mph    
Max Gust Speed 30 mph    
Visibility 9 miles    
Events Rain    
T = Trace of Precipitation, MM = Missing Value Source: NWS Daily Summary

Daily Weather History Graph

Daily Weather History Graph

Search for Another Location

Airport or City:

Trip Planner

Search our weather history database for the weather conditions in past years. The results will help you decide how hot, cold, wet, or windy it might be!

Date:

Astronomy

May. 27, 2013 Rise Set
Actual Time 5:35 AM PDT 8:32 PM PDT
Civil Twilight 5:02 AM PDT 9:06 PM PDT
Nautical Twilight 4:20 AM PDT 9:48 PM PDT
Astronomical Twilight 3:30 AM PDT 10:38 PM PDT
Moon 11:14 PM PDT (5/27) 8:20 AM PDT (5/27)
Length of Visible Light 16h 03m
Length of Day
14h 56m
Waning Gibbous, 90% of the Moon is Illuminated
May 27
Waning Gibbous
May 31
Last Quarter
Jun 8
New
Jun 16
First Quarter
Jun 23
Full

Hourly Weather History & Observations

Time (PDT) Temp. Windchill Dew Point Humidity Pressure Visibility Wind Dir Wind Speed Gust Speed Precip Events Conditions
12:53 AM 39.9 °F - 36.0 °F 86% 30.03 in 10.0 mi Calm Calm - N/A   Clear
1:53 AM 39.9 °F 37.8 °F 37.0 °F 89% 30.01 in 10.0 mi ESE 3.5 mph - N/A   Overcast
2:53 AM 42.1 °F - 37.9 °F 85% 29.99 in 10.0 mi Calm Calm - N/A   Overcast
3:53 AM 43.0 °F - 37.9 °F 82% 29.96 in 10.0 mi Calm Calm - N/A   Overcast
4:53 AM 44.1 °F - 39.9 °F 85% 29.94 in 10.0 mi Calm Calm - 0.00 in Rain Light Rain
5:53 AM 44.1 °F - 39.9 °F 85% 29.95 in 10.0 mi Calm Calm - 0.01 in Rain Light Rain
6:53 AM 44.1 °F - 42.1 °F 93% 29.95 in 6.0 mi Calm Calm - 0.03 in Rain Light Rain
7:53 AM 45.0 °F - 42.1 °F 90% 29.94 in 9.0 mi Calm Calm - 0.03 in Rain Light Rain
8:53 AM 46.9 °F - 42.1 °F 83% 29.93 in 10.0 mi South 8.1 mph - 0.00 in   Overcast
9:53 AM 48.0 °F - 43.0 °F 83% 29.93 in 10.0 mi South 9.2 mph - 0.01 in Rain Light Rain
10:53 AM 52.0 °F - 44.1 °F 74% 29.89 in 10.0 mi South 11.5 mph - 0.00 in   Mostly Cloudy
11:53 AM 54.0 °F - 43.0 °F 66% 29.89 in 10.0 mi SSW 10.4 mph - 0.00 in   Overcast
12:53 PM 55.0 °F - 43.0 °F 64% 29.88 in 10.0 mi WSW 8.1 mph - 0.01 in   Overcast
1:39 PM 53.6 °F - 44.6 °F 72% 29.92 in 10.0 mi South 6.9 mph - 0.00 in Rain Light Rain
1:53 PM 53.1 °F - 46.9 °F 80% 29.88 in 4.0 mi SSE 8.1 mph - 0.03 in Rain Rain
2:53 PM 55.0 °F - 46.0 °F 72% 29.86 in 10.0 mi WNW 3.5 mph - 0.00 in   Overcast
3:53 PM 55.0 °F - 46.0 °F 72% 29.86 in 8.0 mi WSW 10.4 mph - 0.01 in Rain Light Rain
4:53 PM 55.0 °F - 46.9 °F 74% 29.86 in 10.0 mi SW 10.4 mph - 0.00 in   Overcast
5:53 PM 55.9 °F - 46.0 °F 69% 29.84 in 10.0 mi West 15.0 mph - 0.00 in   Mostly Cloudy
6:53 PM 54.0 °F - 45.0 °F 72% 29.83 in 10.0 mi West 6.9 mph - 0.00 in   Mostly Cloudy
7:10 PM 50.0 °F - 44.6 °F 82% 29.88 in 6.0 mi SW 18.4 mph 24.2 mph 0.02 in Rain Light Rain
7:18 PM 48.2 °F - 44.6 °F 87% 29.88 in 6.0 mi SW 15.0 mph 25.3 mph 0.03 in Rain Light Rain
7:53 PM 50.0 °F - 45.0 °F 83% 29.84 in 10.0 mi South 3.5 mph - 0.03 in   Overcast
8:53 PM 48.0 °F - 43.0 °F 83% 29.85 in 8.0 mi West 23.0 mph 29.9 mph 0.02 in Rain Rain
9:01 PM 46.4 °F 40.4 °F 42.8 °F 87% 29.89 in 6.0 mi WSW 13.8 mph 28.8 mph 0.02 in Rain Rain
9:46 PM 48.2 °F - 44.6 °F 87% 29.90 in 10.0 mi WSW 5.8 mph - 0.02 in   Overcast
9:53 PM 48.0 °F - 44.1 °F 86% 29.87 in 10.0 mi West 8.1 mph - 0.02 in Rain Light Rain
10:53 PM 46.9 °F - 43.0 °F 86% 29.86 in 10.0 mi WSW 8.1 mph - 0.01 in   Overcast
11:53 PM 46.0 °F 39.9 °F 42.1 °F 86% 29.86 in 10.0 mi West 13.8 mph - 0.01 in Rain Light Rain